[[[{"header":{"parameterUnit":"kt","parameterCategory":2,"dx":1,"dy":1,"la1":30.253999710083008,"la2":30.299108505249023,"lo1":-89.0895004272461,"lo2":-89.04439544677734,"nx":28,"ny":28,"refTime":"2022-10-07T21:00:00:Z","depth":0,"parameterNumber":1,"parameterNumberName":"U-component_of_WINDS"},"data":[-5.5559,-5.5646,-5.5624,-5.5714,-5.5709,-5.5766,-5.578,-5.5795,-5.5801,-5.5866,-5.5899,-5.5886,-5.5883,-5.5917,-5.5952,-5.5945,-5.5962,-5.6009,-5.5993,-5.5804,-5.5777,-5.575,-5.5729,-5.6012,-5.6013,-5.6193,-5.6195,-5.6196,-5.5422,-5.5418,-5.5459,-5.5484,-5.5519,-5.5461,-5.5475,-5.5508,-5.5561,-5.5569,-5.56,-5.5656,-5.5696,-5.5677,-5.5712,-5.5752,-5.5727,-5.5763,-5.5762,-5.5762,-5.5559,-5.5536,-5.5783,-5.5783,-5.5783,-5.5783,-5.5783,-5.5783,-5.5167,-5.522,-5.5222,-5.5266,-5.5272,-5.5289,-5.5336,-5.5318,-5.5357,-5.5392,-5.5357,-5.5416,-5.5419,-5.5451,-5.5455,-5.55,-5.5456,-5.5489,-5.5498,-5.5508,-5.5523,-5.5268,-5.5505,-5.5504,-5.5503,-5.5503,-5.5502,0,-5.4974,-5.4952,-5.499,-5.5021,-5.5052,-5.5074,-5.509,-5.5118,-5.5064,-5.5098,-5.5147,-5.5171,-5.5217,-5.5261,-5.5288,-5.5286,-5.5231,-5.5221,-5.5244,-5.5264,-5.5278,-5.5274,-5.4945,-5.5215,-5.5213,-5.5211,-5.521,-5.5209,-5.4718,-5.4781,-5.4773,-5.4802,-5.4806,-5.4854,-5.4878,-5.4825,-5.4853,-5.4864,-5.4913,-5.4955,-5.4986,-5.5066,-5.5045,-5.508,-5.5054,-5.5159,-5.5059,-5.5074,-5.5058,-5.5056,-5.5063,-5.5181,-5.5185,-5.5188,-5.519,0,-5.4576,-5.4539,-5.4631,-5.4616,-5.4614,-5.4684,-5.4671,-5.4721,-5.4698,-5.4764,-5.4776,-5.474,-5.4788,-5.4749,-5.4795,-5.4773,-5.4888,-5.486,-5.4887,-5.488,-5.4973,-5.4966,-5.5275,-5.5314,-5.5017,-5.502,-5.5022,0,-5.4344,-5.443,-5.4371,-5.4426,-5.4519,-5.4464,-5.4557,-5.4547,-5.4549,-5.46,-5.4529,-5.4579,-5.452,-5.4564,-5.4532,-5.4618,-5.4626,-5.4615,-5.4607,-5.4624,-5.4626,-5.464,-5.4628,-5.458,-5.4579,-5.4577,-5.4576,0,-5.4128,-5.4196,-5.4285,-5.4295,-5.4288,-5.433,-5.4329,-5.4331,-5.4355,-5.4379,-5.4394,-5.4426,-5.4445,-5.447,-5.4429,-5.4363,-5.4533,-5.4432,-5.4522,-5.4524,-5.4564,-5.4563,-5.4844,-5.4574,-5.4574,-5.4573,-5.4573,0,-5.3937,-5.3963,-5.4096,-5.4089,-5.4109,-5.4167,-5.4196,-5.4236,-5.4243,-5.4226,-5.4245,-5.4194,-5.4264,-5.4168,-5.4264,-5.419,-5.4212,-5.4207,-5.4212,-5.4219,-5.4114,-5.4281,-5.455,-5.4578,-5.4222,-5.4219,-5.4216,0,-5.37,-5.3825,-5.3779,-5.3907,-5.396,-5.3878,-5.3941,-5.3949,-5.3932,-5.3974,-5.3954,-5.4002,-5.3922,-5.3932,-5.3984,-5.3967,-5.4064,-5.3952,-5.4015,-5.4018,-5.4019,-5.4265,-5.4317,-5.4495,-5.4178,-5.4182,-5.4185,0,-5.3513,-5.3504,-5.3531,-5.354,-5.3542,-5.3585,-5.3657,-5.3692,-5.3723,-5.3739,-5.3799,-5.3864,-5.3807,-5.3824,-5.3786,-5.3843,-5.3996,-5.3774,-5.3773,-5.3817,-5.4154,-5.4203,-5.4233,-5.3958,-5.3963,-5.3966,-5.4154,0,-5.3237,-5.3294,-5.3362,-5.3385,-5.3411,-5.3489,-5.3447,-5.3481,-5.3441,-5.3422,-5.3509,-5.3505,-5.3541,-5.3563,-5.3526,-5.3668,-5.3639,-5.3577,-5.3483,-5.3644,-5.3705,-5.373,-5.3395,-5.3392,-5.3389,-5.3387,0,0,-5.3021,-5.3103,-5.305,-5.3118,-5.3138,-5.3052,-5.3139,-5.3148,-5.3169,-5.3184,-5.313,-5.3223,-5.3223,-5.3333,-5.3379,-5.3393,-5.3416,-5.3361,-5.3567,-5.3587,-5.3606,-5.3672,-5.3698,-5.3383,-5.3382,-5.3381,-5.338,0,-5.2912,-5.2913,-5.2999,-5.3006,-5.3014,-5.299,-5.301,-5.3003,-5.2995,-5.3079,-5.3008,-5.3054,-5.313,-5.314,-5.3154,-5.3346,-5.329,-5.3359,-5.3477,-5.3543,-5.3566,-5.3587,-5.3657,-5.3683,-5.3374,-5.3374,-5.3374,0,-5.2723,-5.2718,-5.2754,-5.2794,-5.2799,-5.2855,-5.2745,-5.2809,-5.2849,-5.2753,-5.2838,-5.283,-5.2839,-5.2948,-5.2995,-5.2948,-5.3179,-5.3098,-5.3113,-5.3118,-5.3179,-5.3208,-5.3233,-5.29,-5.2899,-5.2897,0,0,-5.2634,-5.2687,-5.2665,-5.2768,-5.2776,-5.274,-5.2765,-5.2729,-5.2739,-5.2743,-5.2733,-5.2745,-5.2788,-5.2818,-5.2856,-5.298,-5.2979,-5.3041,-5.3064,-5.3082,-5.3097,-5.3164,-5.3192,-5.2892,-5.2892,-5.2891,0,0,-5.2592,-5.2571,-5.253,-5.2644,-5.2656,-5.2642,-5.2706,-5.2655,-5.2685,-5.2672,-5.2614,-5.2614,-5.2714,-5.271,-5.264,-5.2822,-5.2729,-5.2745,-5.2822,-5.2849,-5.2871,-5.2871,-5.2529,0,0,0,0,0,-5.246,-5.2574,-5.2537,-5.2549,-5.26,-5.2662,-5.2668,-5.2623,-5.2558,-5.261,-5.2593,-5.2531,-5.2661,-5.2597,-5.2611,-5.269,-5.282,-5.2833,-5.2845,-5.2973,-5.3002,-5.3027,0,0,0,0,0,0,-5.2465,-5.2481,-5.2533,-5.2525,-5.2535,-5.2657,-5.2538,-5.2529,-5.2551,-5.2538,-5.2536,-5.2531,-5.2494,-5.2587,-5.26,-5.2677,-5.2524,-5.2825,-5.2836,-5.2845,-5.2983,-5.3007,-5.3027,0,0,0,0,0,-5.2468,-5.2481,-5.2574,-5.2523,-5.2532,-5.2499,-5.2534,-5.2525,-5.2541,-5.2516,-5.2508,-5.2505,-5.2497,-5.2505,-5.2595,-5.2672,-5.2515,-5.252,-5.2832,-5.284,-5.2848,-5.2994,0,0,0,0,0,0,-5.2471,-5.2474,-5.2575,-5.2576,-5.2477,-5.2491,-5.2492,-5.2522,-5.2516,-5.251,-5.2481,-5.2471,-5.2501,-5.2506,-5.2513,-5.2673,-5.2507,-5.2512,-5.2516,-5.2838,-5.2845,-5.2851,0,0,0,0,0,0,-5.2466,-5.2475,-5.2576,-5.252,-5.2515,-5.2484,-5.2485,-5.2554,-5.2517,-5.2481,-5.2473,-5.2477,-5.2491,-5.2508,-5.2512,-5.2622,-5.2501,-5.2506,-5.251,-5.2512,-5.2844,-5.2849,0,0,0,0,0,0,-5.2469,-5.2477,-5.2519,-5.2515,-5.251,-5.252,-5.2544,-5.2599,-5.247,-5.2483,-5.2457,-5.2451,-5.2495,-5.2498,-5.2513,-5.2621,-5.2622,-5.2502,-5.2505,-5.2507,-5.2509,0,0,0,0,0,0,0,-5.2472,-5.2431,-5.2568,-5.2511,-5.2506,-5.2587,-5.2587,-5.2588,-5.2469,-5.2463,-5.2458,-5.2454,-5.2473,-5.2479,-5.2484,-5.2621,0,0,-5.2501,-5.2503,0,0,0,0,0,0,0,0,-5.2427,-5.243,-5.2568,-5.2569,-5.2569,-5.2587,-5.2587,-5.2588,-5.2468,-5.2464,-5.2459,-5.2456,-5.2475,-5.2479,-5.2484,0,0,0,0,0,0,0,0,0,0,0,0,0,0,0,-5.2569,-5.2569,0,-5.2587,-5.2587,-5.2588,-5.2467,-5.2464,-5.246,-5.2457,-5.2476,-5.248,-5.2483,0,0,0,0,0,0,0,0,0,0,0,0,0,0,0,0,0,0,0,0,0,0,0,0,0,0,0,0,0,0,0,0,0,0,0,0,0,0,0,0,0,0,0,0,0,0,0,0,0,0,0,0,0,0,0,0,0,0,0,0,0,0,0,0,0,0,0,0,0]}],[{"header":{"parameterUnit":"kt","parameterCategory":2,"dx":1,"dy":1,"la1":30.253999710083008,"la2":30.299108505249023,"lo1":-89.0895004272461,"lo2":-89.04439544677734,"nx":28,"ny":28,"refTime":"2022-10-07T21:00:00:Z","depth":0,"parameterNumber":2,"parameterNumberName":"V-component_of_WINDS"},"data":[-11.1774,-11.1907,-11.1906,-11.2054,-11.2077,-11.2177,-11.2211,-11.2254,-11.2286,-11.2401,-11.2465,-11.2472,-11.25,-11.2572,-11.2639,-11.2639,-11.2668,-11.2717,-11.2709,-11.2494,-11.2464,-11.2435,-11.2406,-11.2723,-11.2724,-11.2933,-11.2935,-11.2936,-11.1618,-11.1644,-11.1722,-11.1797,-11.1863,-11.1815,-11.1867,-11.1924,-11.2013,-11.2053,-11.2116,-11.2215,-11.2291,-11.23,-11.2371,-11.2428,-11.2407,-11.2447,-11.2443,-11.2448,-11.2218,-11.2187,-11.2463,-11.2463,-11.2463,-11.2463,-11.2463,-11.2463,-11.1334,-11.1413,-11.1458,-11.1542,-11.1578,-11.1626,-11.17,-11.1709,-11.1782,-11.1859,-11.1837,-11.1936,-11.1972,-11.2053,-11.2077,-11.2151,-11.2104,-11.2146,-11.2156,-11.2167,-11.2181,-11.1882,-11.2162,-11.2161,-11.216,-11.216,-11.2159,0,-11.1125,-11.1119,-11.1193,-11.1268,-11.1329,-11.1384,-11.1434,-11.1478,-11.1457,-11.1517,-11.1604,-11.1652,-11.1745,-11.1823,-11.1887,-11.1903,-11.1854,-11.1848,-11.1876,-11.189,-11.1894,-11.1894,-11.1521,-11.184,-11.1837,-11.1835,-11.1833,-11.1832,-11.0839,-11.0932,-11.0975,-11.1028,-11.1055,-11.1138,-11.1187,-11.1161,-11.1213,-11.1267,-11.1335,-11.1414,-11.1475,-11.161,-11.1612,-11.168,-11.1657,-11.178,-11.1667,-11.1676,-11.166,-11.1655,-11.1664,-11.1803,-11.1806,-11.181,-11.1812,0,-11.0678,-11.0674,-11.0815,-11.0847,-11.0858,-11.0954,-11.098,-11.1055,-11.1053,-11.1156,-11.1178,-11.1174,-11.1256,-11.124,-11.1329,-11.1317,-11.147,-11.1445,-11.1458,-11.1453,-11.1562,-11.1552,-11.1916,-11.1962,-11.1632,-11.1635,-11.1638,0,-11.0432,-11.0553,-11.0539,-11.0621,-11.0753,-11.0725,-11.0855,-11.0867,-11.0899,-11.0979,-11.0923,-11.0999,-11.0965,-11.1037,-11.1019,-11.1141,-11.1157,-11.1156,-11.115,-11.1162,-11.1162,-11.1187,-11.1172,-11.1131,-11.1129,-11.1128,-11.1126,0,-11.0182,-11.0315,-11.0448,-11.0477,-11.0522,-11.0584,-11.0604,-11.0639,-11.0686,-11.0742,-11.0772,-11.0838,-11.0875,-11.0926,-11.0903,-11.0827,-11.1051,-11.0942,-11.1049,-11.105,-11.11,-11.1097,-11.1424,-11.1124,-11.1123,-11.1123,-11.1122,0,-10.9982,-11.0046,-11.0239,-11.0275,-11.031,-11.0396,-11.0463,-11.0532,-11.0573,-11.0569,-11.0612,-11.0572,-11.0677,-11.057,-11.0713,-11.0621,-11.0659,-11.0666,-11.0674,-11.0682,-11.0563,-11.0751,-11.1063,-11.1096,-11.069,-11.0686,-11.0683,0,-10.9698,-10.9891,-10.9869,-11.0052,-11.0139,-11.0072,-11.0166,-11.0204,-11.0206,-11.0277,-11.0277,-11.0357,-11.0273,-11.0296,-11.0369,-11.0372,-11.0491,-11.0354,-11.0453,-11.0457,-11.0447,-11.0734,-11.0786,-11.0997,-11.0637,-11.0641,-11.0645,0,-10.9477,-10.9533,-10.9567,-10.9599,-10.9647,-10.9718,-10.9826,-10.9901,-10.995,-10.9997,-11.0086,-11.0196,-11.0138,-11.0175,-11.0148,-11.0225,-11.0409,-11.0152,-11.0152,-11.0199,-11.0611,-11.066,-11.0696,-11.0373,-11.0379,-11.0383,-11.0608,0,-10.9178,-10.9274,-10.9366,-10.9437,-10.949,-10.9602,-10.9588,-10.9644,-10.9615,-10.9615,-10.9743,-10.9767,-10.9839,-10.9874,-10.9844,-11.0027,-10.9993,-10.993,-10.9824,-11.0012,-11.0086,-11.0116,-10.9716,-10.9713,-10.971,-10.9708,0,0,-10.8907,-10.9044,-10.9016,-10.9121,-10.9164,-10.9092,-10.9214,-10.9246,-10.9312,-10.9342,-10.9283,-10.9443,-10.9464,-10.9621,-10.9679,-10.9707,-10.9738,-10.9672,-10.9923,-10.9947,-10.9969,-11.0048,-11.0079,-10.9703,-10.9702,-10.9701,-10.97,0,-10.8796,-10.8827,-10.8949,-10.8982,-10.903,-10.9024,-10.9054,-10.9087,-10.9092,-10.9218,-10.9154,-10.9228,-10.9356,-10.9388,-10.942,-10.9653,-10.9599,-10.9676,-10.9808,-10.9896,-10.9924,-10.9948,-11.0031,-11.0062,-10.9694,-10.9694,-10.9694,0,-10.8577,-10.8604,-10.8662,-10.8757,-10.8786,-10.8876,-10.8763,-10.8862,-10.8927,-10.8839,-10.8965,-10.8975,-10.9015,-10.9165,-10.9232,-10.918,-10.9475,-10.9377,-10.9394,-10.9401,-10.9485,-10.9518,-10.9548,-10.9157,-10.9156,-10.9154,0,0,-10.8482,-10.857,-10.859,-10.8731,-10.8755,-10.8748,-10.8793,-10.8769,-10.8809,-10.8825,-10.8838,-10.8876,-10.895,-10.8999,-10.9066,-10.9234,-10.9239,-10.9312,-10.9338,-10.9358,-10.9377,-10.9466,-10.9499,-10.9147,-10.9147,-10.9147,0,0,-10.8435,-10.8465,-10.843,-10.8593,-10.8636,-10.8661,-10.8747,-10.8703,-10.8763,-10.8748,-10.8707,-10.8716,-10.8856,-10.8868,-10.878,-10.9028,-10.8924,-10.8945,-10.9016,-10.9047,-10.9072,-10.9067,-10.8665,0,0,0,0,0,-10.8315,-10.8462,-10.843,-10.8455,-10.8573,-10.868,-10.8694,-10.8667,-10.8595,-10.8663,-10.8666,-10.8606,-10.8812,-10.8734,-10.8758,-10.8855,-10.9061,-10.9076,-10.9091,-10.9222,-10.9255,-10.9283,0,0,0,0,0,0,-10.8324,-10.8356,-10.8426,-10.8459,-10.8485,-10.8674,-10.8546,-10.8542,-10.8587,-10.8574,-10.8607,-10.8607,-10.8583,-10.872,-10.8742,-10.8835,-10.8658,-10.9067,-10.908,-10.9092,-10.9233,-10.926,-10.9284,0,0,0,0,0,-10.8332,-10.8357,-10.8554,-10.8456,-10.8479,-10.8478,-10.854,-10.8536,-10.8569,-10.8575,-10.8572,-10.8545,-10.8586,-10.8602,-10.8733,-10.8826,-10.8642,-10.8651,-10.9075,-10.9086,-10.9095,-10.9246,0,0,0,0,0,0,-10.8338,-10.8353,-10.8557,-10.8563,-10.8399,-10.8466,-10.8476,-10.8531,-10.8567,-10.8566,-10.851,-10.8499,-10.859,-10.8602,-10.8615,-10.8825,-10.863,-10.8638,-10.8644,-10.9083,-10.9091,-10.9098,0,0,0,0,0,0,-10.8339,-10.8358,-10.856,-10.849,-10.8487,-10.8456,-10.8465,-10.8571,-10.8568,-10.8499,-10.8492,-10.8505,-10.857,-10.8603,-10.8612,-10.8778,-10.8621,-10.8629,-10.8634,-10.8638,-10.909,-10.9096,0,0,0,0,0,0,-10.8346,-10.8363,-10.8488,-10.8486,-10.8483,-10.8545,-10.8548,-10.8669,-10.8512,-10.8499,-10.8496,-10.8489,-10.8572,-10.8581,-10.8611,-10.8773,-10.8777,-10.8621,-10.8626,-10.863,-10.8633,0,0,0,0,0,0,0,-10.8352,-10.825,-10.8524,-10.8483,-10.848,-10.8616,-10.8617,-10.8619,-10.851,-10.8504,-10.8498,-10.8492,-10.8575,-10.8584,-10.8593,-10.8769,0,0,-10.862,-10.8624,0,0,0,0,0,0,0,0,-10.8242,-10.8248,-10.8524,-10.8526,-10.8527,-10.8616,-10.8617,-10.8619,-10.8509,-10.8504,-10.8499,-10.8495,-10.8577,-10.8584,-10.8592,0,0,0,0,0,0,0,0,0,0,0,0,0,0,0,-10.8525,-10.8526,0,-10.8616,-10.8617,-10.8618,-10.8508,-10.8504,-10.85,-10.8497,-10.8579,-10.8585,-10.8591,0,0,0,0,0,0,0,0,0,0,0,0,0,0,0,0,0,0,0,0,0,0,0,0,0,0,0,0,0,0,0,0,0,0,0,0,0,0,0,0,0,0,0,0,0,0,0,0,0,0,0,0,0,0,0,0,0,0,0,0,0,0,0,0,0,0,0,0,0]}]]]